Location: Eschentzwiller
(47.7125°N, 7.3981°E)
Time: 04:18:21
(UTC+00:00)

USA 305 - Pass Details

Date: 27 October 2020
Orbit: 568 x 577 km, 54.0° (Epoch: 30 November)

Event Time Altitude Azimuth Distance (km) Brightness Sun altitude
Rises 17:44:00 0° 298° (WNW) 2,789 7.5 -14.6°
Reaches altitude 10° 17:46:18 10° 303° (WNW) 1,887 6.4 -15.0°
Maximum altitude 17:50:32 59° 23° (NNE) 669 3.0 -15.7°
Enters shadow 17:52:24 31° 90° (E) 1,022 3.6 -16.1°
